Printer-friendly version

IAU Minor Planet Center

Minor Planet Center

MPEC 2005-L47 : 2005 JH177

The following Minor Planet Electronic Circular may be linked-to from your own Web pages, but must not otherwise be redistributed electronically.


Read MPEC 2005-L46 Read MPEC 2005-L48


M.P.E.C. 2005-L47                                Issued 2005 June 11, 13:20 UT

     The Minor Planet Electronic Circulars contain information on unusual
         minor planets and routine data on comets.  They are published
   on behalf of Commission 20 of the International Astronomical Union by the
          Minor Planet Center, Smithsonian Astrophysical Observatory,
                          Cambridge, MA 02138, U.S.A.

                  Supported in part by the Brinson Foundation
             Prepared using the Tamkin Foundation Computer Network

                              MPC@CFA.HARVARD.EDU
          URL http://cfa-www.harvard.edu/iau/mpc.html  ISSN 1523-6714

                                  2005 JH177

Observations:
     K05JH7H* C2005 05 11.00967 13 46 23.13 -07 23 55.7          21.8 R EL047807
     K05JH7H  C2005 05 11.09898 13 46 22.76 -07 23 53.5                 EL047807
     K05JH7H  C2005 06 01.30746 13 45 03.11 -07 17 23.8          23.0 R EL047568
     K05JH7H  C2005 06 01.36340 13 45 02.92 -07 17 23.0                 EL047568
     K05JH7H  C2005 06 02.30361 13 44 59.98 -07 17 09.8                 EL047568

Observer details:
568 Mauna Kea.  Observers J. Pittichova, B. Yang.  Measurer K. J. Meech.
807 Cerro Tololo.  Observers M. W. Buie, L. H. Wasserman.  Measurers
    M. W. Buie, L. H. Wasserman, R. L. Millis.  4.0-m f/2.9 reflector + CCD.

Orbital elements:
2005 JH177
Eccentricity assumed
Epoch 2005 May 10.0 TT = JDT 2453500.5                  MPC
M 359.99737              (2000.0)            P               Q
n   0.00337730     Peri.   91.20967     -0.88233441     +0.46784576
a  43.9969616      Node   116.68688     -0.45131889     -0.81039936
e   0.0697269      Incl.    3.27562     -0.13340636     -0.35266589
P 292              H    6.9           G   0.15
From 5 observations 2005 May 11-June 2.

Ephemeris:
2005 JH177               a,e,i = 44.00, 0.07, 3                  q = 40.929
Date    TT    R. A. (2000) Decl.     Delta      r     Elong.  Phase     V
2005 06 09    13 44.68   -07 15.8   40.288   40.929   128.6     1.1    23.2
2005 06 19    13 44.30   -07 14.4   40.427   40.929   119.0     1.2    23.2
2005 06 29    13 44.06   -07 13.8   40.580   40.929   109.4     1.3    23.2
2005 07 09    13 43.96   -07 14.1   40.742   40.929    99.9     1.4    23.2
2005 07 19    13 44.01   -07 15.2   40.910   40.929    90.4     1.4    23.2
2005 07 29    13 44.21   -07 17.2   41.077   40.929    80.9     1.4    23.2
2005 08 08    13 44.56   -07 20.0   41.241   40.929    71.4     1.3    23.2
2005 08 18    13 45.04   -07 23.6   41.395   40.929    62.0     1.3    23.2
2005 08 28    13 45.66   -07 27.8   41.536   40.929    52.5     1.1    23.2
2005 09 07    13 46.39   -07 32.6   41.659   40.929    43.1     1.0    23.2
2005 09 17    13 47.23   -07 37.9   41.762   40.929    33.6     0.8    23.2

Brian G. Marsden             (C) Copyright 2005 MPC           M.P.E.C. 2005-L47

Read MPEC 2005-L46 Read MPEC 2005-L48


Our Web policy. Index to the CBAT/MPC/ICQ pages.


Valid HTML 4.01!